Wind_Speed
2 4 3 4 5 7 6 5 5 5 8 7 7 7 10 10 8 7 7 6 6 7 8 9 11 12 14 20 29 32 33 37 42 39 32 38 36 36 37 38 38 36 33 30
2 1 3 3 2 6 4 4 2 5 5 4 6 8 11 11 9 9 8 7 7 7 8 9 10 11 11 14 16 24 32 35 35 43 38 37 40 38 39 38 37 38 36 32
2 2 3 3 6 4 3 3 7 5 7 3 4 9 10 10 11 11 10 10 10 10 9 6 5 8 11 13 15 19 24 30 34 38 41 48 45 39 42 40 39 39 39 35
4 2 2 6 4 4 4 3 3 2 4 6 8 9 11 12 14 13 11 11 11 12 11 7 5 6 8 11 14 17 21 26 27 33 37 39 44 41 40 39 39 38 38 37
5 4 4 1 4 6 6 7 5 5 6 5 3 1 12 13 14 13 12 12 13 13 11 8 6 3 5 7 11 14 18 23 28 29 32 37 45 46 37 37 35 37 35 34
3 5 6 8 4 5 5 3 12 12 9 8 9 1 5 5 12 13 11 10 11 13 8 7 5 3 5 7 12 18 22 23 24 30 34 34 36 37 37 37 39 37 36 31
3 3 6 6 5 7 5 7 12 23 13 11 6 6 5 3 7 8 7 6 9 9 8 7 6 5 6 13 18 20 24 28 30 31 35 36 34 45 39 36 34 36 39 34
4 4 4 13 7 8 7 5 14 17 13 10 10 7 3 3 5 5 5 6 8 8 10 8 6 5 6 10 15 18 20 23 15 12 28 27 27 31 35 33 32 30 38 36
7 7 4 31 5 15 4 3 4 9 9 10 9 6 5 7 7 6 7 8 8 9 9 9 7 4 1 7 10 14 23 20 8 14 19 20 17 14 24 30 35 36 35 31
5 3 3 16 9 5 7 7 3 5 6 6 4 6 6 5 4 4 6 7 6 6 4 5 6 7 4 6 8 15 20 24 22 4 13 19 19 14 25 28 31 36 32 28
0 2 1 8 14 6 7 7 5 5 4 8 11 12 9 7 6 6 4 3 5 5 4 5 10 13 12 8 6 11 16 19 22 25 26 21 20 17 18 26 30 33 37 35
4 14 7 8 17 11 10 9 5 6 10 12 15 16 12 11 7 6 8 8 6 4 5 5 9 13 14 11 13 11 14 15 18 20 23 27 29 33 32 36 31 31 32 30
2 19 7 9 14 13 11 8 9 9 10 20 15 11 12 11 8 6 5 5 8 7 6 7 10 9 14 11 10 7 5 7 11 10 14 18 24 28 31 29 26 24 22 23
6 21 10 16 10 13 9 14 13 11 12 15 12 13 11 9 10 8 8 9 10 11 10 11 11 10 13 11 7 6 1 7 9 8 9 13 16 20 21 22 25 26 23 20
18 14 12 15 17 16 18 18 15 13 14 14 13 12 11 10 12 13 12 14 15 16 17 16 15 17 16 12 10 11 16 18 17 16 17 19 21 22 20 21 22 23 21 20
22 11 16 18 20 20 19 17 16 15 14 14 14 13 10 11 14 14 14 15 14 15 15 15 15 15 16 15 16 17 17 16 16 15 16 17 19 22 24 23 21 19 19 18
13 14 22 23 24 22 19 17 15 11 12 13 13 13 13 15 15 16 16 16 14 13 12 11 13 13 13 12 11 12 14 14 14 15 16 16 17 18 18 17 16 16 17 17
11 17 22 22 24 22 21 18 16 15 13 12 13 14 16 17 17 18 17 17 14 11 10 10 10 10 8 10 10 10 11 11 12 11 10 12 12 12 13 12 12 12 12 11
12 10 20 22 24 21 20 20 18 16 15 14 13 12 12 12 15 17 17 16 15 13 11 10 9 8 6 8 9 9 10 8 10 10 9 10 9 8 9 11 11 11 9 6
17 12 9 24 30 27 22 21 20 19 19 18 16 16 15 15 17 18 19 18 15 10 10 8 8 8 8 12 10 8 6 10 9 8 9 9 10 11 11 11 11 12 10 9
17 14 10 15 28 31 26 22 23 23 22 23 23 21 19 18 19 19 20 20 17 14 13 11 10 10 11 13 14 13 12 13 11 9 10 11 13 13 12 13 11 10 9 10
17 19 17 8 11 22 26 21 26 26 26 26 27 25 24 23 23 23 21 18 14 17 17 15 13 12 12 15 19 20 18 15 12 9 10 10 14 16 14 12 10 9 8 9
19 21 21 18 14 16 21 18 15 25 32 31 32 30 29 28 26 27 27 23 21 21 20 18 16 14 13 14 16 21 21 19 15 13 11 14 16 14 11 8 7 8 8 8
11 15 19 19 18 20 21 18 15 16 21 32 34 32 33 32 31 29 26 23 22 22 22 20 18 17 15 13 17 19 19 19 17 16 12 15 16 12 10 7 6 6 7 8
10 11 9 10 12 14 15 16 19 19 21 24 34 37 37 38 34 26 27 26 24 25 24 22 21 19 17 16 19 20 20 20 19 18 16 17 17 14 9 5 4 4 7 9
2 1 2 1 5 8 10 15 21 26 27 27 29 34 37 40 38 35 31 27 29 28 27 25 26 23 19 18 21 22 22 23 23 21 20 20 18 16 11 8 6 7 9 12
5 4 6 7 6 7 11 11 11 18 24 28 27 30 35 37 40 39 37 33 29 33 30 31 30 26 22 19 19 23 25 26 25 24 22 22 21 19 15 11 9 11 12 15
Wind_Direction
94 122 137 144 166 172 178 169 153 234 201 235 206 187 206 215 220 211 203 188 188 196 209 224 233 245 251 249 245 241 237 237 239 248 242 249 251 255 257 251 248 247 246 246
91 195 177 198 183 194 170 141 105 132 244 203 202 198 203 214 226 228 235 223 224 226 222 227 234 242 244 242 242 244 243 245 248 248 242 239 251 250 251 253 248 244 245 241
218 17 115 342 210 200 158 170 148 163 223 162 223 239 234 218 227 232 237 238 239 236 237 240 247 248 256 261 256 249 248 248 248 241 237 243 245 245 238 244 248 242 238 238
154 83 196 238 295 224 153 170 204 198 206 210 230 251 266 253 243 242 237 240 236 232 228 220 247 276 280 283 283 277 267 256 253 257 253 249 239 238 248 240 244 241 236 238
134 170 282 315 185 145 166 243 203 214 234 223 194 289 272 250 243 241 244 243 237 234 232 245 260 293 327 324 318 310 299 277 266 255 258 254 248 243 244 234 240 237 234 235
138 133 188 232 231 154 98 274 218 200 208 167 149 149 254 315 231 236 241 240 245 246 235 234 230 247 324 332 327 318 306 293 280 254 244 253 249 244 243 234 235 235 232 229
128 146 282 242 164 130 121 236 201 203 206 172 192 218 296 301 207 213 217 229 254 241 219 212 237 261 306 328 328 323 311 302 298 258 234 235 240 234 228 225 230 240 231 227
98 94 248 156 120 160 209 193 199 202 217 222 230 244 242 206 209 216 242 252 253 246 211 220 239 256 321 340 352 345 337 328 322 244 225 229 236 237 221 223 232 239 222 218
169 202 231 172 183 193 165 175 203 225 230 243 253 246 230 226 215 232 256 253 253 239 232 234 237 211 271 358 5 7 36 24 346 224 225 222 213 211 220 231 231 225 208 199
113 216 192 198 195 179 217 223 219 206 233 234 210 177 189 192 218 231 239 231 218 216 227 242 208 173 138 62 69 48 52 50 58 81 177 174 195 207 207 209 208 195 177 168
359 306 314 235 210 185 152 165 165 190 219 196 162 153 149 139 137 139 137 159 161 157 164 199 185 174 142 131 104 64 61 65 65 74 81 99 117 130 165 171 169 159 144 130
196 190 165 199 209 182 172 164 178 190 163 160 153 148 149 135 130 121 102 88 95 116 135 158 178 179 163 150 126 117 78 69 78 82 85 89 88 92 99 104 106 109 110 115
328 175 152 141 158 170 173 170 163 151 164 158 157 159 155 147 148 148 120 89 91 113 121 143 148 179 176 158 155 169 65 44 130 100 98 100 106 112 115 115 117 112 112 115
216 163 130 148 164 166 164 151 154 147 144 169 165 164 164 163 167 165 142 115 107 110 111 120 120 130 160 167 176 201 186 116 138 116 109 113 122 120 121 121 123 121 119 119
201 195 171 152 154 155 153 151 161 167 163 160 166 170 175 175 161 152 147 135 123 114 109 106 105 106 109 123 134 133 115 115 114 110 109 111 115 121 122 118 114 115 122 126
210 197 161 161 166 162 162 171 173 171 171 170 170 172 171 169 159 151 148 145 140 129 121 118 113 108 110 115 120 120 117 117 117 116 115 117 119 121 123 122 122 122 126 127
184 171 175 171 176 173 177 182 177 170 165 172 171 171 170 170 169 165 160 152 146 136 130 128 126 126 123 131 134 134 129 127 120 121 121 120 122 129 129 130 125 124 126 123
244 227 196 185 181 185 189 192 188 184 171 165 172 177 180 182 177 170 167 166 167 164 155 150 150 148 141 146 142 148 147 146 145 143 150 149 145 147 151 150 144 141 139 136
257 218 217 214 207 197 195 197 194 189 181 180 173 183 188 180 182 179 180 184 189 187 181 177 177 180 179 172 177 179 175 177 183 194 182 174 177 184 183 178 178 178 180 182
237 243 240 217 217 213 211 210 206 200 198 197 194 190 193 189 187 190 196 201 202 199 201 213 221 221 205 198 197 195 196 195 191 182 183 199 202 192 189 190 187 193 199 205
240 224 230 214 207 214 217 222 217 215 212 210 211 207 201 196 198 199 205 213 211 210 214 225 241 240 226 218 216 213 213 207 224 228 223 219 205 191 185 186 189 198 204 211
227 217 208 199 189 212 219 232 237 232 227 226 222 218 218 212 211 213 219 225 217 218 222 229 233 229 235 229 224 219 218 218 218 212 207 186 185 183 181 184 193 201 216 224
220 211 206 210 209 201 213 226 237 238 235 232 231 226 225 224 222 219 224 225 221 220 226 228 229 230 235 233 225 214 213 216 218 210 201 198 194 194 198 213 240 248 237 229
197 201 201 205 214 207 213 225 238 245 239 232 231 233 231 226 229 232 236 238 224 218 222 222 222 225 231 232 218 209 209 211 218 209 210 209 203 207 219 246 244 233 219 202
86 112 145 176 196 210 223 227 239 247 245 241 236 235 237 236 231 231 228 229 230 225 222 219 219 222 227 229 218 212 211 213 212 213 214 210 211 215 222 241 235 225 197 182
38 239 123 181 228 228 238 246 246 241 241 242 239 236 237 239 235 234 231 231 229 225 223 219 215 217 222 224 219 214 212 213 214 216 216 218 219 217 223 227 232 211 187 181
299 265 218 232 245 247 240 243 247 241 242 243 243 240 239 242 242 233 231 227 226 224 221 219 218 218 218 217 215 215 214 211 213 216 219 219 220 220 221 221 218 195 186 186
Height
1479 1478 1478 1480 1482 1487 1491 1495 1498 1493 1497 1485 1483 1486 1485 1485 1486 1487 1489 1490 1490 1490 1492 1494 1496 1497 1498 1500 1503 1506 1508 1510 1511 1512 1518 1521 1524 1527 1532 1536 1540 1543 1545 1546
1483 1480 1480 1481 1478 1481 1485 1491 1489 1493 1491 1479 1480 1482 1483 1483 1484 1486 1487 1489 1490 1490 1490 1491 1491 1493 1495 1496 1498 1501 1502 1505 1507 1510 1511 1512 1514 1517 1522 1527 1532 1535 1537 1540
1492 1485 1485 1495 1483 1480 1481 1480 1484 1492 1482 1478 1479 1479 1480 1482 1482 1484 1486 1487 1487 1488 1489 1489 1490 1491 1491 1492 1493 1495 1496 1499 1500 1502 1505 1507 1508 1507 1509 1516 1523 1526 1530 1534
1500 1492 1506 1484 1475 1473 1476 1478 1478 1478 1477 1477 1477 1477 1478 1479 1481 1483 1484 1485 1486 1486 1487 1487 1488 1489 1489 1489 1489 1489 1489 1489 1490 1491 1492 1494 1497 1499 1502 1508 1514 1518 1522 1526
1499 1505 1492 1475 1473 1476 1476 1480 1475 1476 1474 1474 1477 1479 1476 1476 1478 1481 1482 1483 1484 1485 1486 1486 1486 1486 1485 1485 1484 1483 1481 1480 1480 1480 1481 1484 1486 1490 1494 1499 1505 1511 1514 1518
1498 1494 1501 1479 1466 1466 1469 1490 1467 1470 1471 1474 1478 1484 1476 1475 1476 1478 1479 1481 1482 1483 1484 1484 1484 1484 1483 1482 1480 1478 1475 1472 1469 1469 1470 1471 1474 1479 1483 1484 1496 1502 1507 1510
1489 1489 1482 1464 1463 1466 1487 1486 1461 1464 1468 1472 1476 1474 1474 1473 1474 1476 1477 1479 1480 1480 1481 1482 1482 1482 1482 1480 1477 1473 1467 1460 1454 1452 1457 1463 1467 1471 1478 1481 1489 1493 1499 1503
1484 1490 1479 1456 1464 1472 1462 1457 1458 1462 1466 1468 1469 1470 1471 1473 1474 1475 1476 1476 1477 1477 1478 1479 1480 1480 1481 1480 1476 1470 1463 1453 1445 1442 1449 1454 1460 1463 1463 1473 1482 1487 1491 1496
1460 1463 1448 1448 1449 1452 1454 1457 1460 1462 1463 1464 1466 1467 1469 1471 1472 1473 1474 1474 1474 1474 1475 1477 1478 1479 1481 1480 1477 1472 1465 1454 1447 1444 1446 1450 1454 1457 1461 1468 1474 1479 1484 1488
1448 1447 1446 1447 1448 1451 1453 1456 1458 1460 1462 1463 1465 1467 1469 1470 1470 1471 1471 1471 1470 1472 1473 1475 1477 1478 1480 1480 1480 1475 1470 1463 1456 1451 1448 1448 1452 1455 1458 1463 1468 1474 1475 1483
1448 1445 1445 1445 1447 1450 1452 1455 1457 1459 1461 1462 1464 1466 1469 1469 1470 1470 1472 1471 1470 1470 1471 1474 1475 1477 1480 1481 1481 1480 1478 1474 1470 1464 1460 1457 1454 1455 1460 1462 1467 1471 1469 1477
1443 1433 1436 1439 1443 1448 1451 1454 1456 1457 1459 1461 1464 1467 1469 1470 1472 1472 1473 1472 1470 1470 1471 1474 1476 1477 1481 1481 1481 1484 1482 1482 1479 1476 1474 1469 1468 1467 1472 1474 1481 1483 1485 1488
1430 1433 1437 1437 1441 1446 1450 1453 1455 1457 1459 1460 1465 1467 1469 1470 1473 1474 1474 1473 1472 1472 1473 1473 1476 1478 1480 1482 1483 1485 1485 1484 1485 1483 1481 1481 1480 1480 1480 1486 1489 1492 1495 1496
1432 1434 1437 1438 1442 1447 1449 1451 1455 1457 1459 1462 1464 1467 1469 1471 1473 1474 1475 1476 1475 1475 1476 1476 1478 1479 1480 1482 1484 1487 1486 1486 1485 1486 1487 1488 1487 1490 1493 1494 1496 1499 1502 1504
1434 1435 1433 1437 1442 1446 1448 1451 1454 1457 1458 1461 1465 1467 1470 1472 1473 1475 1477 1478 1479 1479 1480 1481 1482 1482 1483 1485 1487 1489 1488 1490 1491 1491 1493 1493 1494 1496 1500 1501 1504 1506 1509 1512
1438 1435 1434 1438 1441 1445 1448 1451 1453 1456 1458 1461 1465 1467 1470 1473 1474 1475 1478 1479 1481 1482 1483 1484 1485 1487 1489 1491 1493 1493 1493 1495 1496 1497 1499 1500 1501 1502 1504 1506 1508 1510 1512 1516
1434 1433 1435 1439 1441 1443 1447 1450 1453 1455 1458 1461 1464 1467 1469 1472 1474 1476 1479 1481 1483 1485 1486 1488 1489 1491 1492 1494 1496 1497 1498 1499 1500 1502 1504 1505 1507 1508 1509 1510 1513 1514 1516 1517
1433 1435 1434 1436 1439 1443 1446 1449 1453 1456 1458 1461 1464 1467 1469 1471 1473 1476 1479 1481 1484 1486 1488 1490 1492 1493 1494 1496 1498 1500 1501 1502 1504 1506 1507 1509 1511 1512 1513 1514 1515 1517 1519 1520
1430 1430 1432 1435 1439 1441 1444 1447 1451 1455 1458 1460 1462 1465 1468 1470 1474 1476 1479 1482 1484 1486 1489 1491 1492 1494 1495 1497 1498 1500 1502 1504 1506 1507 1509 1510 1511 1513 1515 1516 1517 1520 1521 1522
1426 1428 1428 1430 1435 1438 1441 1445 1449 1453 1456 1459 1462 1465 1467 1469 1472 1475 1478 1481 1483 1486 1488 1490 1491 1493 1495 1497 1499 1500 1502 1503 1505 1507 1508 1510 1512 1513 1515 1517 1518 1520 1522 1524
1421 1424 1425 1425 1428 1433 1438 1442 1446 1449 1453 1457 1459 1462 1464 1468 1471 1474 1476 1478 1481 1484 1486 1487 1489 1491 1493 1495 1497 1499 1501 1503 1504 1505 1507 1509 1511 1513 1514 1516 1518 1520 1522 1525
1417 1420 1423 1424 1426 1431 1436 1439 1442 1445 1449 1452 1456 1460 1462 1465 1468 1470 1473 1475 1478 1481 1483 1484 1486 1488 1490 1492 1494 1496 1499 1501 1503 1504 1506 1508 1510 1512 1514 1516 1518 1520 1521 1522
1413 1416 1419 1422 1426 1429 1433 1436 1437 1439 1443 1446 1450 1453 1455 1458 1462 1465 1467 1470 1473 1476 1479 1481 1484 1485 1486 1487 1489 1493 1496 1498 1501 1503 1505 1507 1509 1512 1513 1515 1517 1517 1518 1519
1411 1414 1415 1419 1423 1426 1429 1431 1433 1434 1436 1439 1442 1446 1449 1453 1456 1459 1463 1465 1469 1471 1473 1476 1479 1482 1483 1484 1485 1488 1492 1496 1498 1501 1504 1506 1508 1510 1512 1513 1514 1514 1516 1518
1414 1412 1413 1415 1417 1419 1422 1425 1427 1429 1430 1432 1435 1439 1442 1446 1450 1453 1456 1459 1464 1467 1470 1473 1475 1477 1479 1480 1482 1485 1488 1491 1495 1498 1501 1504 1506 1508 1510 1511 1512 1513 1515 1517
1412 1411 1412 1414 1414 1415 1417 1418 1419 1421 1424 1425 1427 1430 1433 1437 1442 1447 1450 1453 1457 1461 1464 1468 1470 1472 1474 1476 1478 1481 1484 1488 1491 1495 1498 1500 1503 1505 1507 1509 1510 1511 1512 1514
1411 1411 1411 1412 1412 1412 1412 1413 1413 1414 1416 1418 1420 1422 1425 1429 1432 1438 1441 1444 1449 1453 1457 1460 1463 1466 1468 1471 1473 1476 1479 1482 1485 1489 1493 1496 1499 1501 1504 1506 1507 1508 1509 1510